CZ-6A DEB, 61092

Orbit data source: Space-Track

CZ-6A DEB, 61092 is space debris in LEO originally from a launch on Tue, 06 Aug 2024 UTC launched from the Taiyaun Space Center, China (TSC). Debris objects in space refer to the collection of defunct objects orbiting the Earth. Examples of debris include non-operational satellites, rocket bodies, and fragments generated from explosions, collisions, or faulty payload assembly.

Loading next visibility...
Identifier
61092, 2024-140NJ
Orbit
LEO
Country
Flag of CNCN / PRC
Related business
Manufacturer
SAST
Mission
Spacecraft
Bus & Motor
Unknown
Mass
Unknown
Launch date (UTC)
2024-08-06 (2 years ago)
Launch vehicle
Unknown
Launch site
Taiyaun Space Center, China (TSC)
Object type
Payload
Rocket body
Debris
Shape & HBR
Unknown shape, 0.1 m
Radar Cross Section
Medium (>0.1 m² and <1 m²)

Expand to show TLE details & history
Last TLE update: 16 hours ago

TLE from 16 hours ago
0 CZ-6A DEB
1 61092U 24140NJ  26171.19886924  .00285857  00000-0  68848-2 0  9994
2 61092  88.9143 260.6281 0030429 162.2906 197.9418 15.39722322 98385
Epoch: 2026-06-20T04:46Z
TLE epoch observation values (Epoch: 2026-06-20T04:46:22.302Z)
Latitude
-0.00007°
Longitude
-79.38175°
Altitude
469.921 km
Speed
7.62 km/s
True Right ascension
17h 22m 30s
True Declination
0° 00' 00"
Sunlit
Object was in full shadow at epoch
Visualization orbit readout
Latitude
Unknown
Longitude
Unknown
Altitude
Unknown
Speed
Unknown
Apparent Right ascension
Unknown
Apparent Declination
Unknown
Sunlit
N/A
Visualization observer readout
Local Sidereal Time
07:24:01
Azimuth
Unknown
Elevation
Unknown
Doppler factor
Unknown
Orbital elements
Apogee altitude
464.47 km
Perigee altitude
422.954 km
Semi-major axis
6,821.849 km
Eccentricity
0.00304
Inclination
88.9143°
RAAN
260.6281°
Arg. of periapsis
162.2906°
True anomaly
197.83477°
Mean anomaly
197.9418°
Eccentric anomaly
197.88825°
Mean motion
3.85203 °/min
Orbital period
93.46 mins
BSTAR
0.0068848
Loading maneuver chart data...
Computing Atmospheric mass density...
Loading historical data...
Loading historical data...
Loading historical data...
Loading historical data...
Loading historical data...
Loading historical data...
Loading historical data...

Documentation

Showing up to 5 results
|